Billund, Denmark

10:42 AM CEST on March 27, 2017 (GMT +0200)
Billund

Weather History for EKBI - July, 2013

Change the Weather History Date:

Friday, July 12, 2013

  Actual Average Record
Temperature  
Mean Temperature 60 °F -  
Max Temperature 75 °F 67 °F 84 °F (2005)
Min Temperature 44 °F 51 °F 44 °F (2006)
Degree Days  
Heating Degree Days 6    
Growing Degree Days 10 (Base 50)    
Moisture  
Dew Point 51 °F    
Average Humidity 73    
Maximum Humidity 100    
Minimum Humidity 31    
Precipitation  
Precipitation 0.00 in - - ()
Sea Level Pressure  
Sea Level Pressure 30.14 in    
Wind  
Wind Speed 4 mph ()    
Max Wind Speed 22 mph    
Max Gust Speed -    
Visibility 5.8 miles    
Events Fog    
Averages and records for this station are not official NWS values.
T = Trace of Precipitation, MM = Missing Value Source: Averaged Metar Reports

Daily Weather History Graph

Daily Weather History Graph

Search for Another Location

Airport or City:

Trip Planner

Search our weather history database for the weather conditions in past years. The results will help you decide how hot, cold, wet, or windy it might be!

Date:

Astronomy

Jul. 12, 2013 Rise Set
Actual Time 4:55 AM CEST 10:01 PM CEST
Civil Twilight 3:59 AM CEST 10:57 PM CEST
Nautical Twilight 2:01 AM CEST 12:50 AM CEST
Astronomical Twilight Sun does not rise Sun does not rise
Moon 9:51 AM CEST (7/12) 11:02 PM CEST (7/12)
Length of Visible Light 18h 57m
Length of Day
17h 05m
Waxing Crescent, 15% of the Moon is Illuminated
Jul 12
Waxing Crescent
Jul 16
First Quarter
Jul 22
Full
Jul 29
Last Quarter
Aug 6
New

Hourly Weather History & Observations

Time (CEST) Temp. Dew Point Humidity Pressure Visibility Wind Dir Wind Speed Gust Speed Precip Events Conditions
12:00 AM 51 °F 49 °F 89% 30.15 in - West 4.6 mph - -  
12:20 AM 50.0 °F 48.2 °F 94% 30.12 in 6.2 mi West 3.5 mph - N/A   Partly Cloudy
12:50 AM 50.0 °F 48.2 °F 94% 30.12 in 6.2 mi West 3.5 mph - N/A   Partly Cloudy
1:00 AM 45 °F 44 °F 96% 30.15 in - Calm Calm - -  
1:50 AM 50.0 °F 48.2 °F 94% 30.12 in 6.2 mi West 2.3 mph - N/A   Partly Cloudy
2:00 AM 49 °F 48 °F 94% 30.15 in 9 mi West 2.3 mph - - Fog Patches of Fog
2:20 AM 50.0 °F 48.2 °F 94% 30.12 in 6.2 mi West 2.3 mph - N/A Fog Shallow Fog
2:50 AM 48.2 °F 46.4 °F 93% 30.12 in 6.2 mi West 2.3 mph - N/A Fog Shallow Fog
3:00 AM 45 °F 43 °F 91% 30.14 in 0 mi Calm Calm - - Fog Patches of Fog
3:20 AM 46.4 °F 44.6 °F 93% 30.12 in 6.2 mi WNW 1.2 mph - N/A Fog Shallow Fog
4:00 AM 47 °F 46 °F 93% 30.15 in 0 mi Calm Calm - -  
4:20 AM 46.4 °F 44.6 °F 93% 30.12 in 6.2 mi Calm Calm - N/A Fog Patches of Fog
4:50 AM 44.6 °F 42.8 °F 93% 30.12 in 0.5 mi Calm Calm - N/A Fog Patches of Fog
5:00 AM 45 °F 43 °F 91% 30.14 in 0 mi Calm Calm - - Fog Patches of Fog
5:20 AM 44.6 °F 42.8 °F 93% 30.12 in 0.5 mi Calm Calm - N/A Fog Patches of Fog
5:50 AM 44.6 °F 44.6 °F 100% 30.12 in 0.5 mi Calm Calm - N/A Fog Patches of Fog
6:00 AM 45 °F 44 °F 96% 30.15 in - Calm Calm - -  
6:20 AM 46.4 °F 46.4 °F 100% 30.12 in 0.5 mi Calm Calm - N/A Fog Patches of Fog
6:50 AM 48.2 °F 48.2 °F 100% 30.12 in 1.2 mi Calm Calm - N/A   Partly Cloudy
7:00 AM 50 °F 49 °F 96% 30.15 in - Calm Calm - -  
7:20 AM 51.8 °F 50.0 °F 94% 30.15 in 3.7 mi WSW 1.2 mph - N/A Fog Fog
7:50 AM 53.6 °F 53.6 °F 100% 30.15 in - West 2.3 mph - N/A   Clear
8:00 AM 55 °F 53 °F 92% 30.16 in 6 mi WNW 2.3 mph - -   Partly Cloudy
8:20 AM 57.2 °F 53.6 °F 88% 30.15 in 6.2 mi NW 2.3 mph - N/A   Partly Cloudy
8:50 AM 59.0 °F 53.6 °F 82% 30.15 in 6.2 mi WNW 3.5 mph - N/A   Scattered Clouds
9:00 AM 59 °F 54 °F 77% 30.16 in - West 2.3 mph - -  
9:20 AM 59.0 °F 53.6 °F 82% 30.15 in 6.2 mi WNW 3.5 mph - N/A   Scattered Clouds
9:50 AM 60.8 °F 53.6 °F 77% 30.15 in 6.2 mi WNW 2.3 mph - N/A   Partly Cloudy
10:00 AM 61 °F 54 °F 70% 30.17 in - NW 1.2 mph - -  
10:20 AM 62.6 °F 53.6 °F 72% 30.15 in 6.2 mi Calm Calm - N/A   Partly Cloudy
10:50 AM 64.4 °F 53.6 °F 68% 30.15 in 6.2 mi WSW 1.2 mph - N/A   Partly Cloudy
11:00 AM 64 °F 53 °F 59% 30.17 in 12 mi WSW 1.2 mph - -   Scattered Clouds
11:20 AM 64.4 °F 53.6 °F 68% 30.15 in 6.2 mi WSW 2.3 mph - N/A   Partly Cloudy
11:50 AM 66.2 °F 50.0 °F 56% 30.15 in 6.2 mi West 1.2 mph - N/A   Partly Cloudy
12:00 PM 67 °F 51 °F 47% 30.17 in - WSW 6.7 mph - -  
12:20 PM 68.0 °F 51.8 °F 56% 30.15 in 6.2 mi Variable 1.2 mph - N/A   Partly Cloudy
12:50 PM 69.8 °F 50.0 °F 49% 30.15 in 6.2 mi SSW 1.2 mph - N/A   Partly Cloudy
1:00 PM 70 °F 50 °F 39% 30.16 in 2 mi South 8.9 mph - -  
1:20 PM 71.6 °F 51.8 °F 50% 30.15 in 6.2 mi Variable 2.3 mph - N/A   Partly Cloudy
1:50 PM 73.4 °F 51.8 °F 47% 30.15 in 6.2 mi West 4.6 mph - N/A   Partly Cloudy
2:00 PM 73 °F 53 °F 39% 30.16 in 16 mi WNW 3.5 mph - -   Scattered Clouds
2:20 PM 73.4 °F 51.8 °F 47% 30.15 in 6.2 mi Variable 1.2 mph - N/A   Partly Cloudy
2:50 PM 73.4 °F 51.8 °F 47% 30.15 in 6.2 mi West 4.6 mph - N/A   Partly Cloudy
3:00 PM 74 °F 53 °F 36% 30.14 in - WSW 11.2 mph - -  
3:20 PM 73.4 °F 51.8 °F 47% 30.12 in 6.2 mi Variable 3.5 mph - N/A   Scattered Clouds
3:50 PM 75.2 °F 51.8 °F 44% 30.12 in 6.2 mi SW 5.8 mph - N/A   Scattered Clouds
4:00 PM 75 °F 50 °F 31% 30.14 in - SSW 8.9 mph - -  
4:20 PM 73.4 °F 50.0 °F 44% 30.12 in 6.2 mi Variable 2.3 mph - N/A   Scattered Clouds
4:50 PM 73.4 °F 50.0 °F 44% 30.12 in 6.2 mi WSW 3.5 mph - N/A   Scattered Clouds
5:00 PM 73 °F 51 °F 34% 30.14 in 16 mi West 3.5 mph - -   Partly Cloudy
5:20 PM 71.6 °F 53.6 °F 53% 30.12 in 6.2 mi WNW 8.1 mph - N/A   Scattered Clouds
5:50 PM 71.6 °F 53.6 °F 53% 30.12 in 6.2 mi WNW 8.1 mph - N/A   Mostly Cloudy
6:00 PM 72 °F 54 °F 43% 30.14 in - West 17.9 mph - -  
6:20 PM 71.6 °F 55.4 °F 57% 30.12 in 6.2 mi WNW 12.7 mph - N/A   Scattered Clouds
6:50 PM 69.8 °F 55.4 °F 60% 30.12 in 6.2 mi West 11.5 mph - N/A   Scattered Clouds
7:00 PM 71 °F 56 °F 49% 30.14 in - West 22.4 mph - -  
7:20 PM 69.8 °F 55.4 °F 60% 30.12 in 6.2 mi West 11.5 mph - N/A   Scattered Clouds
7:50 PM 68.0 °F 55.4 °F 64% 30.15 in 6.2 mi West 10.4 mph - N/A   Scattered Clouds
8:20 PM 66.2 °F 55.4 °F 68% 30.15 in - West 10.4 mph - N/A   Clear
8:50 PM 64.4 °F 55.4 °F 73% 30.15 in - West 9.2 mph - N/A   Clear
9:00 PM 63 °F 56 °F 72% 30.16 in - West 20.1 mph - -  
9:20 PM 62.6 °F 55.4 °F 77% 30.15 in 6.2 mi West 9.2 mph - N/A   Scattered Clouds
9:50 PM 60.8 °F 55.4 °F 82% 30.15 in 6.2 mi West 6.9 mph - N/A   Partly Cloudy
10:00 PM 59 °F 55 °F 82% 30.17 in - West 11.2 mph - -  
10:20 PM 57.2 °F 53.6 °F 88% 30.15 in 6.2 mi West 5.8 mph - N/A   Partly Cloudy
10:50 PM 57.2 °F 53.6 °F 88% 30.15 in 6.2 mi West 5.8 mph - N/A   Partly Cloudy
11:00 PM 56 °F 54 °F 89% 30.18 in 12 mi West 5.8 mph - -   Scattered Clouds
11:20 PM 55.4 °F 53.6 °F 94% 30.18 in 6.2 mi West 4.6 mph - N/A   Partly Cloudy
11:50 PM 53.6 °F 51.8 °F 94% 30.18 in 6.2 mi West 4.6 mph - N/A   Partly Cloudy